ROMMA est une association bénévole à but non lucratif. Votre soutien est indispensable : ADHERER à ROMMA ou FAIRE un DON

Chambon - (38, Isère)

Oisans (2460 m)   Longitude: 06° 10' 42" E   Latitude: 45° 01' 32" N Station partenaire n°803
 

Détail journalier du     <<     >>

Température Humidité Vent Dir Rafale Dir. rafale Neige 1 Neige 2
Heure (°C) (%) (km/h) (km/h) (cm) (cm)
01:00 10.6296SSO15SO516
02:00 10.7286SSO10SSO50
03:00 10.7318S18SSO40
04:00 10.53114SSO23SSO40
05:00 10.53013SSO24SSO40
06:00 9.93112SSO20SSO30
07:00 9.63212SSO18SSO30
08:00 10.43110SSO24SSO10
09:00 12.1299SSO22SSO129
10:00 12.2299SO19OSO10
11:00 13.13010OSO18OSO20
12:00 13.63110OSO19OSO20
13:00 14.5347OSO22O20
14:00 14.3369O23O20
15:00 14.73812O27O20
16:00 14.74410O25O30
17:00 15.84511OSO32O20
18:00 15.04816O30O30
19:00 14.65019OSO38OSO20
20:00 13.94822SO37SO10
21:00 13.14622SO38OSO10
22:00 12.44818SO34SO10
23:00 12.35018SSO38SSO10
minuit 12.34421SSO39SO00

Graphique du 17-08-2019

 

Serveur OMMA